[[{"header":{"parameterUnit":"m.s-1","parameterCategory":2,"la1":30.2992,"la2":30.254,"lo1":-89.0895,"lo2":-89.0443,"dy":0.0025,"dx":0.0025,"nx":19,"ny":19,"refTime":"2026-04-09T03:00:00:Z","depth":"0","parameterNumber":2,"parameterNumberName":"U-component_of_CURRENTS"},"data":[0,0,0,0.245,0.2451,0.2489,0.2489,0.253,0.253,0,0,0,0,0,0,0,0,0,0,0,0.243,0.243,0.245,0.2451,0.2489,0.2489,0.253,0.253,0,0,0,0,0,0,0,0,0,0,0,0.243,0.243,0.2431,0.2452,0.2489,0.2489,0.253,0.25,0,0,0,0,0,0,0,0,0,0,0.2464,0.2448,0.243,0.2431,0.2452,0.2489,0.2489,0.2499,0.2502,0.2515,0,0.2525,0,0.2538,0.2534,0.2534,0,0,0,0.244,0.2445,0.2462,0.2431,0.2452,0.2489,0.2469,0.2501,0.2504,0.2519,0.2526,0.2527,0.2538,0.2534,0.2535,0.2615,0.2616,0,0,0.2438,0.243,0.2459,0.2464,0.2468,0.2467,0.247,0.2503,0.2506,0.2526,0.2529,0.2539,0.2535,0.2535,0.2615,0.2615,0,0,0,0.244,0.2429,0.2444,0.2462,0.2475,0.2469,0.2472,0.2504,0.2511,0.2529,0.254,0.2535,0.2536,0.2614,0.2615,0.2669,0,0,0,0.2438,0.2431,0.2443,0.2438,0.2474,0.2491,0.2472,0.2508,0.2513,0.2539,0.2535,0.2536,0.2614,0.2615,0.2666,0.2668,0,0,0,0.2427,0.243,0.2437,0.2438,0.2461,0.2491,0.2499,0.2509,0.252,0.2534,0.2536,0.2613,0.2615,0.2664,0.2665,0.2726,0,0,0,0.2413,0.2418,0.2437,0.245,0.2461,0.2496,0.2499,0.2523,0.2536,0.2535,0.2614,0.2615,0.2663,0.2663,0.2723,0.2705,0.2716,0,0,0.2409,0.2417,0.2426,0.2444,0.2484,0.249,0.2542,0.2559,0.2559,0.2599,0.2601,0.2667,0.2664,0.2725,0.277,0.2779,0,0,0,0.2417,0.243,0.2441,0.2476,0.2503,0.255,0.2574,0.2596,0.264,0.2575,0.2675,0.2671,0.2708,0.2692,0.2699,0.2662,0.262,0.262,0.262,0.2393,0.2428,0.2443,0.2495,0.2529,0.2601,0.2639,0.2678,0.2675,0.271,0.2722,0.281,0.2793,0.2798,0.2761,0.2741,0.2741,0.2742,0.2742,0.2377,0.238,0.2441,0.2465,0.2539,0.2591,0.2701,0.2734,0.2818,0.2786,0.2821,0.2757,0.2809,0.2766,0.2745,0.2745,0.2744,0.2744,0.2744,0.2339,0.2344,0.2365,0.2418,0.2489,0.2582,0.2682,0.2781,0.2841,0.2889,0.2886,0.2884,0.2841,0.292,0.292,0.2921,0.2921,0.2921,0.2921,0.2273,0.23,0.2313,0.2375,0.2409,0.2511,0.2683,0.2763,0.2885,0.293,0.2931,0.2864,0.2864,0.2851,0.2926,0.2925,0.2925,0.2924,0.2924,0.2246,0.2248,0.2261,0.2286,0.2364,0.24,0.2588,0.2754,0.2876,0.2928,0.2939,0.2965,0.2946,0.2939,0.2927,0.3018,0.3018,0.3018,0.3018,0.2218,0.2224,0.2209,0.222,0.2265,0.2346,0.2395,0.2569,0.28,0.288,0.2959,0.2905,0.2903,0.2878,0.2872,0.2858,0.2929,0.2929,0.2929,0.2218,0.2203,0.2171,0.2157,0.2193,0.2235,0.2222,0.2326,0.2685,0.2922,0.2916,0.292,0.2836,0.2835,0.2787,0.2782,0.2755,0,0]},{"header":{"parameterUnit":"m.s-1","parameterCategory":2,"la1":30.2992,"la2":30.254,"lo1":-89.0895,"lo2":-89.0443,"dy":0.0025,"dx":0.0025,"nx":19,"ny":19,"refTime":"2026-04-09T03:00:00:Z","depth":"0","parameterNumber":3,"parameterNumberName":"V-component_of_CURRENTS"},"data":[0,0,0,0.0164,0.0164,0.0115,0.0115,0.0035,0.0034,0,0,0,0,0,0,0,0,0,0,0,0.0179,0.0179,0.0164,0.0164,0.0115,0.0115,0.0035,0.0034,0,0,0,0,0,0,0,0,0,0,0,0.0179,0.0179,0.0179,0.0163,0.0115,0.0115,0.0035,0.0073,0,0,0,0,0,0,0,0,0,0,0.012,0.0143,0.0179,0.0179,0.0163,0.0115,0.0115,0.0074,0.007,0.0057,0,0.0058,0,0.0051,0.003,0.003,0,0,0,0.0149,0.0147,0.0136,0.0179,0.0163,0.0115,0.0133,0.0072,0.0067,0.0051,0.0057,0.0054,0.005,0.003,0.0029,0.003,0.003,0,0,0.0151,0.0164,0.0139,0.0133,0.0161,0.0134,0.0131,0.0069,0.0068,0.0056,0.0052,0.0049,0.0029,0.0029,0.0029,0.003,0,0,0,0.0169,0.0166,0.0156,0.0136,0.0133,0.0133,0.013,0.007,0.0068,0.0051,0.0048,0.0029,0.0028,0.0029,0.003,0.0132,0,0,0,0.017,0.0178,0.0158,0.0164,0.0135,0.0104,0.0132,0.0072,0.0065,0.0048,0.0029,0.0027,0.0028,0.0029,0.0128,0.0182,0,0,0,0.0179,0.0178,0.0177,0.0165,0.0152,0.0105,0.0098,0.007,0.0064,0.003,0.0027,0.0028,0.0029,0.0125,0.0175,0.0224,0,0,0,0.0188,0.0211,0.0177,0.0202,0.0152,0.0162,0.0099,0.0088,0.0066,0.0029,0.0028,0.0029,0.0124,0.0171,0.022,0.0299,0.0324,0,0,0.0228,0.0216,0.0232,0.0202,0.0239,0.0166,0.0199,0.0135,0.0078,0.0043,0.0043,0.013,0.0175,0.0223,0.0367,0.039,0,0,0,0.0252,0.0267,0.0272,0.0281,0.0268,0.0269,0.0205,0.0178,0.0142,0.0072,0.0124,0.015,0.0177,0.0216,0.0235,0.0159,0.0035,0.0035,0.0035,0.0324,0.0321,0.0364,0.0363,0.0363,0.0336,0.0329,0.0278,0.021,0.0211,0.023,0.0332,0.0376,0.039,0.0311,0.022,0.022,0.022,0.0221,0.0411,0.0446,0.0438,0.0476,0.0469,0.0483,0.0448,0.0407,0.0392,0.0317,0.0338,0.0318,0.0417,0.0325,0.0227,0.0226,0.0225,0.0224,0.0224,0.0475,0.0496,0.0506,0.0558,0.0601,0.0587,0.0648,0.059,0.0499,0.0516,0.0532,0.0531,0.0452,0.0522,0.0522,0.0523,0.0523,0.0523,0.0524,0.054,0.0556,0.0607,0.0652,0.0699,0.0767,0.0768,0.0769,0.0731,0.0659,0.0658,0.0489,0.0424,0.0415,0.0531,0.053,0.0529,0.0528,0.0528,0.0632,0.0623,0.071,0.0759,0.088,0.1005,0.0996,0.1022,0.0976,0.0978,0.0723,0.0723,0.0696,0.0681,0.0677,0.0854,0.0854,0.0854,0.0854,0.0689,0.0692,0.0804,0.0903,0.1032,0.1121,0.1275,0.127,0.1066,0.0937,0.0813,0.0751,0.0741,0.071,0.0693,0.0686,0.0862,0.0861,0.0861,0.0754,0.0776,0.0867,0.0949,0.1099,0.1251,0.1416,0.1484,0.1145,0.0848,0.0694,0.0694,0.0582,0.0572,0.05,0.0483,0.0462,0,0]}],[{"header":{"parameterUnit":"m.s-1","parameterCategory":2,"la1":30.2992,"la2":30.254,"lo1":-89.0895,"lo2":-89.0443,"dy":0.0025,"dx":0.0025,"nx":19,"ny":19,"refTime":"2026-04-09T03:00:00:Z","depth":"2","parameterNumber":2,"parameterNumberName":"U-component_of_CURRENTS"},"data":[0,0,0,0.2459,0.246,0.2502,0.2502,0.2547,0.2548,0,0,0,0,0,0,0,0,0,0,0,0.2438,0.2438,0.2459,0.246,0.2502,0.2502,0.2547,0.2548,0,0,0,0,0,0,0,0,0,0,0,0.2438,0.2438,0.2439,0.246,0.2502,0.2502,0.2547,0.2515,0,0,0,0,0,0,0,0,0,0,0.2474,0.2458,0.2438,0.2439,0.2461,0.2502,0.2502,0.2513,0.2517,0.2529,0,0.254,0,0.2553,0.2552,0.2552,0,0,0,0.2449,0.2455,0.2472,0.2439,0.2461,0.2502,0.248,0.2515,0.2519,0.2534,0.2541,0.2543,0.2554,0.2552,0.2552,0.2633,0.2633,0,0,0.2447,0.244,0.2469,0.2475,0.2479,0.2479,0.2482,0.2518,0.2522,0.2541,0.2544,0.2555,0.2552,0.2553,0.2633,0.2633,0,0,0,0.2447,0.2438,0.2454,0.2472,0.2486,0.248,0.2483,0.252,0.2527,0.2545,0.2555,0.2553,0.2553,0.2632,0.2633,0.2685,0,0,0,0.2446,0.244,0.2453,0.2448,0.2485,0.2505,0.2485,0.2524,0.2529,0.2555,0.2553,0.2554,0.2632,0.2632,0.2683,0.2684,0,0,0,0.2435,0.2438,0.2446,0.2448,0.2472,0.2505,0.2513,0.2525,0.2536,0.2552,0.2554,0.2631,0.2632,0.268,0.2681,0.274,0,0,0,0.2421,0.2428,0.2446,0.2461,0.2472,0.2509,0.2513,0.2539,0.2554,0.2553,0.2632,0.2633,0.268,0.2679,0.2738,0.2704,0.2713,0,0,0.2419,0.2427,0.2436,0.2454,0.2495,0.2502,0.2555,0.2575,0.2576,0.2616,0.2618,0.2683,0.2681,0.274,0.2767,0.2775,0,0,0,0.2429,0.2442,0.2453,0.2488,0.2516,0.2562,0.2589,0.261,0.2656,0.2593,0.2691,0.2687,0.2723,0.2698,0.2704,0.2638,0.2638,0.2638,0.2638,0.2408,0.2442,0.2458,0.2508,0.2542,0.2614,0.2652,0.2691,0.2689,0.2724,0.2737,0.2822,0.2796,0.28,0.2755,0.2755,0.2756,0.2756,0.2756,0.2395,0.2398,0.2457,0.2482,0.2554,0.2606,0.2713,0.2747,0.2829,0.2798,0.2832,0.2761,0.2809,0.276,0.2759,0.2759,0.2758,0.2758,0.2758,0.2358,0.2363,0.2385,0.2437,0.2508,0.26,0.2697,0.2794,0.2853,0.2899,0.2885,0.2883,0.2851,0.2929,0.2929,0.2929,0.293,0.293,0.293,0.2295,0.2322,0.2336,0.2397,0.2432,0.2532,0.2699,0.2775,0.2888,0.2927,0.2927,0.288,0.2874,0.2861,0.2934,0.2934,0.2933,0.2933,0.2932,0.2268,0.2271,0.2285,0.2311,0.2388,0.2413,0.2602,0.2753,0.2871,0.2914,0.2955,0.2953,0.2933,0.2927,0.2915,0.2998,0.2998,0.2998,0.2998,0.2241,0.2247,0.2234,0.2247,0.229,0.2357,0.2372,0.2471,0.2679,0.274,0.275,0.2679,0.2685,0.2645,0.2645,0.2625,0.2632,0.2631,0.263,0.224,0.2226,0.2196,0.2185,0.222,0.2238,0.2163,0.2091,0.2292,0.2606,0.2585,0.2993,0.2917,0.2914,0.2873,0.2866,0.2841,0,0]},{"header":{"parameterUnit":"m.s-1","parameterCategory":2,"la1":30.2992,"la2":30.254,"lo1":-89.0895,"lo2":-89.0443,"dy":0.0025,"dx":0.0025,"nx":19,"ny":19,"refTime":"2026-04-09T03:00:00:Z","depth":"2","parameterNumber":3,"parameterNumberName":"V-component_of_CURRENTS"},"data":[0,0,0,0.0179,0.0178,0.013,0.013,0.0053,0.0053,0,0,0,0,0,0,0,0,0,0,0,0.0194,0.0194,0.0179,0.0178,0.013,0.013,0.0053,0.0053,0,0,0,0,0,0,0,0,0,0,0,0.0194,0.0194,0.0194,0.0178,0.013,0.013,0.0053,0.009,0,0,0,0,0,0,0,0,0,0,0.0137,0.016,0.0194,0.0194,0.0178,0.013,0.013,0.0092,0.0088,0.0075,0,0.0076,0,0.0069,0.0048,0.0048,0,0,0,0.0164,0.0163,0.0152,0.0194,0.0178,0.0131,0.0148,0.009,0.0085,0.007,0.0075,0.0072,0.0068,0.0048,0.0048,0.0048,0.0048,0,0,0.0167,0.018,0.0155,0.0149,0.0176,0.015,0.0147,0.0087,0.0085,0.0075,0.007,0.0067,0.0048,0.0047,0.0047,0.0048,0,0,0,0.0184,0.0182,0.0172,0.0152,0.0149,0.0149,0.0145,0.0088,0.0085,0.0069,0.0066,0.0047,0.0046,0.0047,0.0048,0.0146,0,0,0,0.0185,0.0193,0.0173,0.0179,0.015,0.012,0.0147,0.0089,0.0082,0.0066,0.0047,0.0046,0.0046,0.0047,0.0142,0.0195,0,0,0,0.0194,0.0193,0.0192,0.018,0.0166,0.0121,0.0115,0.0087,0.0081,0.0048,0.0046,0.0046,0.0047,0.0139,0.0188,0.0234,0,0,0,0.0203,0.0224,0.0192,0.0215,0.0167,0.0175,0.0115,0.0103,0.0082,0.0047,0.0046,0.0048,0.0138,0.0185,0.023,0.0299,0.0322,0,0,0.024,0.0229,0.0244,0.0215,0.025,0.018,0.0211,0.0149,0.0094,0.0061,0.0061,0.0144,0.0188,0.0233,0.0363,0.0385,0,0,0,0.0263,0.0277,0.0281,0.029,0.0277,0.0278,0.0216,0.019,0.0156,0.0089,0.0139,0.0164,0.0189,0.0222,0.0239,0.0053,0.0053,0.0053,0.0053,0.033,0.0327,0.0369,0.0368,0.0368,0.0342,0.0335,0.0286,0.0221,0.0221,0.024,0.0338,0.0374,0.0388,0.0229,0.023,0.023,0.023,0.0231,0.0413,0.0447,0.044,0.0476,0.047,0.0483,0.0449,0.041,0.0395,0.0324,0.0343,0.032,0.0413,0.0238,0.0237,0.0236,0.0235,0.0235,0.0234,0.0475,0.0495,0.0505,0.0556,0.0598,0.0585,0.0644,0.0587,0.0499,0.0514,0.0524,0.0523,0.0401,0.0519,0.052,0.052,0.052,0.0521,0.0521,0.0538,0.0553,0.0604,0.0647,0.0693,0.0759,0.076,0.076,0.0718,0.0645,0.0645,0.0435,0.0425,0.0417,0.0528,0.0527,0.0526,0.0525,0.0525,0.0626,0.0618,0.0703,0.0752,0.087,0.0982,0.0979,0.0996,0.0951,0.0948,0.071,0.0703,0.0676,0.0662,0.0658,0.0825,0.0825,0.0825,0.0825,0.0681,0.0684,0.0795,0.0893,0.1017,0.1092,0.121,0.1158,0.1024,0.0901,0.0897,0.0846,0.0833,0.081,0.0791,0.0787,0.0989,0.0989,0.0989,0.0743,0.0766,0.0856,0.0937,0.1083,0.121,0.1306,0.1222,0.1008,0.099,0.0872,0.0847,0.0758,0.0743,0.069,0.0667,0.0653,0,0]}],[{"header":{"parameterUnit":"m.s-1","parameterCategory":2,"la1":30.2992,"la2":30.254,"lo1":-89.0895,"lo2":-89.0443,"dy":0.0025,"dx":0.0025,"nx":19,"ny":19,"refTime":"2026-04-09T03:00:00:Z","depth":"4","parameterNumber":2,"parameterNumberName":"U-component_of_CURRENTS"},"data":[0,0,0,0.1775,0.1778,0.1934,0.1935,0.2057,0.2058,0,0,0,0,0,0,0,0,0,0,0,0.1728,0.1729,0.1774,0.1778,0.1934,0.1935,0.2057,0.2058,0,0,0,0,0,0,0,0,0,0,0,0.1727,0.1729,0.1731,0.1779,0.1934,0.1935,0.2057,0.1958,0,0,0,0,0,0,0,0,0,0,0.1816,0.179,0.1729,0.1731,0.178,0.1934,0.1935,0.1954,0.1964,0.1965,0,0.2003,0,0.2031,0.2065,0.2065,0,0,0,0.1777,0.1782,0.1818,0.1731,0.1781,0.1934,0.1864,0.196,0.1972,0.1978,0.2005,0.201,0.2033,0.2065,0.2066,0.2183,0.2183,0,0,0.1768,0.1759,0.1811,0.1826,0.1839,0.1859,0.1868,0.1968,0.1989,0.2006,0.2014,0.2035,0.2066,0.2067,0.2182,0.2183,0,0,0,0.1745,0.1753,0.1788,0.182,0.1853,0.1863,0.1874,0.1985,0.1996,0.2015,0.2036,0.2067,0.2068,0.2182,0.2182,0.2236,0,0,0,0.1739,0.1739,0.1784,0.178,0.1852,0.1933,0.1889,0.1989,0.2001,0.2035,0.2067,0.2069,0.2181,0.2182,0.2233,0.2236,0,0,0,0.1718,0.1736,0.1758,0.1779,0.1846,0.1932,0.195,0.1993,0.2013,0.2065,0.2069,0.2181,0.2182,0.2231,0.2232,0.228,0,0,0,0.1695,0.1724,0.1759,0.1804,0.1845,0.1926,0.195,0.2026,0.2073,0.2067,0.2181,0.2182,0.223,0.223,0.2278,0.1989,0,0,0,0.1706,0.1726,0.175,0.1783,0.1856,0.1903,0.1992,0.2069,0.209,0.2141,0.2145,0.2234,0.2232,0.228,0.2068,0,0,0,0,0.1736,0.1761,0.1786,0.1848,0.1907,0.199,0.2066,0.2105,0.2193,0.2126,0.2246,0.2242,0.2271,0.2096,0.2189,0.2188,0.2188,0.2188,0.2188,0.1726,0.1769,0.1814,0.1884,0.1947,0.2063,0.213,0.2201,0.222,0.2275,0.2296,0.2377,0.2195,0.2317,0.2317,0.2317,0.2318,0.2318,0.2318,0.1723,0.1738,0.1826,0.1887,0.1987,0.2078,0.2208,0.2263,0.2367,0.2356,0.2382,0.2175,0.2323,0.2322,0.2322,0.2321,0.232,0.232,0.232,0.1681,0.1692,0.1757,0.1858,0.1975,0.21,0.2202,0.2324,0.2401,0.2447,0.2275,0.2415,0.24,0.248,0.248,0.248,0.248,0.248,0.2481,0.1593,0.1657,0.1712,0.183,0.1903,0.2032,0.222,0.228,0.2394,0.2292,0.2472,0.2431,0.2426,0.2409,0.2484,0.2484,0.2483,0.2483,0.2483,0.1527,0.1574,0.1634,0.1704,0.1845,0.1907,0.2115,0.2157,0.2204,0.2175,0.221,0.2222,0.2174,0.2175,0.2147,0.2148,0.2144,0.2141,0,0.1474,0.1502,0.1564,0.1625,0.1679,0.1822,0.1801,0.1899,0.1998,0.1929,0.2223,0.2262,0.2268,0.2213,0.2209,0.2174,0,0,0,0.1441,0.1463,0.1472,0.1539,0.1583,0.164,0.1781,0.1745,0.198,0.1935,0.2055,0.2077,0.2328,0.2496,0.2452,0.2445,0.2416,0,0]},{"header":{"parameterUnit":"m.s-1","parameterCategory":2,"la1":30.2992,"la2":30.254,"lo1":-89.0895,"lo2":-89.0443,"dy":0.0025,"dx":0.0025,"nx":19,"ny":19,"refTime":"2026-04-09T03:00:00:Z","depth":"4","parameterNumber":3,"parameterNumberName":"V-component_of_CURRENTS"},"data":[0,0,0,0.0181,0.0181,0.0153,0.0152,0.0099,0.0098,0,0,0,0,0,0,0,0,0,0,0,0.0192,0.0192,0.0181,0.0181,0.0153,0.0152,0.0099,0.0098,0,0,0,0,0,0,0,0,0,0,0,0.0192,0.0192,0.0192,0.0181,0.0153,0.0152,0.0099,0.0122,0,0,0,0,0,0,0,0,0,0,0.0151,0.0168,0.0192,0.0192,0.0181,0.0153,0.0152,0.0123,0.0121,0.011,0,0.0113,0,0.0108,0.0095,0.0095,0,0,0,0.0171,0.0171,0.0163,0.0192,0.0181,0.0153,0.0163,0.0122,0.0119,0.0106,0.0112,0.0111,0.0108,0.0095,0.0095,0.0093,0.0093,0,0,0.0172,0.0183,0.0165,0.0162,0.0183,0.0164,0.0162,0.012,0.0121,0.0112,0.0109,0.0107,0.0095,0.0094,0.0093,0.0093,0,0,0,0.0184,0.0184,0.0178,0.0164,0.0162,0.0163,0.0161,0.0123,0.0121,0.0109,0.0106,0.0094,0.0094,0.0092,0.0093,0.0169,0,0,0,0.0184,0.0192,0.0179,0.0184,0.0163,0.0145,0.0164,0.0124,0.0119,0.0106,0.0094,0.0093,0.0092,0.0092,0.0166,0.0209,0,0,0,0.0191,0.0192,0.0192,0.0185,0.0177,0.0146,0.0141,0.0122,0.0117,0.0095,0.0093,0.0092,0.0092,0.0164,0.0204,0.0232,0,0,0,0.0198,0.0211,0.0193,0.0208,0.0178,0.0184,0.0141,0.0134,0.012,0.0094,0.0092,0.0093,0.0163,0.0201,0.0229,0.0234,0,0,0,0.022,0.0214,0.0224,0.0207,0.0233,0.0186,0.021,0.0168,0.0127,0.0101,0.0101,0.0167,0.0204,0.0232,0.0278,0,0,0,0,0.0234,0.0244,0.0248,0.0258,0.0251,0.0258,0.0215,0.0197,0.0173,0.0123,0.0161,0.0182,0.0197,0.019,0.0096,0.0096,0.0096,0.0096,0.0096,0.0274,0.0276,0.0307,0.0312,0.0316,0.0303,0.0301,0.0267,0.022,0.0221,0.024,0.0308,0.0304,0.0228,0.0228,0.0229,0.0229,0.0229,0.0229,0.0325,0.0348,0.0357,0.0387,0.0393,0.0408,0.0388,0.0361,0.0352,0.0302,0.0312,0.0266,0.0237,0.0235,0.0234,0.0233,0.0233,0.0232,0.0232,0.036,0.0374,0.0393,0.0442,0.0487,0.0488,0.0534,0.05,0.0432,0.0443,0.0417,0.0359,0.0357,0.0445,0.0445,0.0446,0.0446,0.0446,0.0446,0.0388,0.041,0.0457,0.0506,0.0553,0.0613,0.0627,0.0619,0.0561,0.0512,0.0468,0.0381,0.0374,0.0369,0.0451,0.045,0.045,0.0449,0.0449,0.0427,0.0438,0.0511,0.0562,0.0671,0.0714,0.0738,0.0702,0.0689,0.0643,0.0535,0.0529,0.05,0.049,0.0488,0.0609,0.0609,0.061,0,0.0453,0.0463,0.056,0.0648,0.0738,0.0775,0.0786,0.0767,0.0677,0.0659,0.0667,0.0546,0.054,0.0507,0.0498,0.0496,0,0,0,0.048,0.0508,0.0577,0.0661,0.0764,0.0781,0.0788,0.0761,0.0695,0.0684,0.0619,0.0617,0.0554,0.0466,0.0408,0.04,0.0388,0,0]}]]